Weather History for Omaha Offutt, NE

Change the Weather History Date:

Monday, August 11, 2014

  Actual Average Record
Temperature  
Mean Temperature 69 °F -  
Max Temperature 78 °F 81 °F 96 °F (2002)
Min Temperature 59 °F 62 °F 53 °F (2004)
Cooling Degree Days 4    
Growing Degree Days 19 (Base 50)    
Moisture  
Dew Point 60 °F    
Average Humidity 72    
Maximum Humidity 100    
Minimum Humidity 47    
Precipitation  
Precipitation 0.00 in - - ()
Sea Level Pressure  
Sea Level Pressure 30.10 in    
Wind  
Wind Speed 7 mph (NNW)    
Max Wind Speed 17 mph    
Max Gust Speed 24 mph    
Visibility 10 miles    
Events Rain    
Averages and records for this station are not official NWS values.
T = Trace of Precipitation, MM = Missing Value Source: NWS Daily Summary

Daily Weather History Graph

Daily Weather History Graph

Search for Another Location

Airport:

Trip Planner

Search our weather history database for the weather conditions in past years. The results will help you decide how hot, cold, wet, or windy it might be!

Date:

Astronomy

Aug. 11, 2014 Rise Set
Actual Time 6:29 AM CDT 8:27 PM CDT
Civil Twilight 5:59 AM CDT 8:57 PM CDT
Nautical Twilight 5:22 AM CDT 9:34 PM CDT
Astronomical Twilight 4:42 AM CDT 10:13 PM CDT
Moon 8:55 PM CDT (8/11) 7:36 AM CDT (8/11)
Length of Visible Light 14h 58m
Length of Day
13h 58m
Full, 99% of the Moon is Illuminated
Aug 11
Full
Aug 17
Last Quarter
Aug 25
New
Sep 2
First Quarter
Sep 8
Full

Hourly Weather History & Observations

Time (CDT) Temp. Dew Point Humidity Pressure Visibility Wind Dir Wind Speed Gust Speed Precip Events Conditions
12:58 AM 68.0 °F 68.0 °F 100% 30.06 in 5.0 mi Calm Calm - N/A   Clear
1:58 AM 67.5 °F 67.5 °F 100% 30.06 in 10.0 mi WNW 3.5 mph - N/A   Clear
2:58 AM 66.6 °F 66.6 °F 100% 30.06 in 8.0 mi WNW 4.6 mph - N/A   Clear
3:58 AM 66.6 °F 66.6 °F 100% 30.06 in 10.0 mi NW 3.5 mph - N/A   Clear
4:58 AM 66.9 °F 66.9 °F 100% 30.06 in 10.0 mi NW 5.8 mph - N/A   Clear
5:58 AM 67.3 °F 67.3 °F 100% 30.05 in 10.0 mi NNW 4.6 mph - N/A   Clear
6:58 AM 67.1 °F 67.1 °F 100% 30.06 in 10.0 mi NNW 8.1 mph - N/A   Clear
7:58 AM 68.7 °F 68.4 °F 99% 30.09 in 10.0 mi NNW 9.2 mph - N/A   Clear
8:58 AM 70.7 °F 65.1 °F 82% 30.11 in 10.0 mi NNW 11.5 mph 17.3 mph N/A   Clear
9:58 AM 72.5 °F 61.3 °F 68% 30.13 in 10.0 mi NNW 12.7 mph - N/A   Clear
10:58 AM 73.8 °F 58.1 °F 58% 30.14 in 10.0 mi North 10.4 mph 21.9 mph N/A   Partly Cloudy
11:58 AM 73.6 °F 57.7 °F 58% 30.14 in 10.0 mi North 15.0 mph 23.0 mph N/A   Scattered Clouds
12:12 PM 73.4 °F 57.2 °F 57% 30.13 in 10.0 mi NW 16.1 mph 20.7 mph N/A   Scattered Clouds
12:58 PM 74.5 °F 57.0 °F 54% 30.13 in 10.0 mi NNW 17.3 mph 24.2 mph N/A   Scattered Clouds
1:12 PM 75.2 °F 57.2 °F 53% 30.13 in 10.0 mi NNW 11.5 mph 19.6 mph N/A Rain Rain
1:25 PM 77.0 °F 57.2 °F 50% 30.13 in 10.0 mi NNW 12.7 mph 21.9 mph N/A   Partly Cloudy
1:58 PM 75.6 °F 57.0 °F 52% 30.13 in 10.0 mi NNW 11.5 mph - N/A   Partly Cloudy
2:58 PM 77.2 °F 56.1 °F 48% 30.12 in 10.0 mi NNW 12.7 mph 21.9 mph N/A   Clear
3:07 PM 77.0 °F 57.2 °F 50% 30.11 in 10.0 mi NW 13.8 mph 21.9 mph N/A   Clear
3:58 PM 78.3 °F 56.3 °F 47% 30.11 in 10.0 mi NNW 6.9 mph 18.4 mph N/A   Partly Cloudy
4:58 PM 77.7 °F 55.9 °F 47% 30.09 in 10.0 mi NNW 10.4 mph 19.6 mph N/A   Clear
5:58 PM 75.9 °F 56.3 °F 50% 30.10 in 10.0 mi North 10.4 mph - N/A   Partly Cloudy
6:58 PM 75.0 °F 56.1 °F 52% 30.09 in 10.0 mi NNW 9.2 mph - N/A   Partly Cloudy
7:58 PM 72.7 °F 56.3 °F 56% 30.09 in 10.0 mi NNW 8.1 mph - N/A   Partly Cloudy
8:58 PM 67.6 °F 56.5 °F 67% 30.09 in 10.0 mi NNW 4.6 mph - N/A   Clear
9:58 PM 64.2 °F 58.1 °F 80% 30.11 in 10.0 mi NW 4.6 mph - N/A   Clear
10:58 PM 60.3 °F 58.5 °F 94% 30.12 in 10.0 mi NW 4.6 mph - N/A   Clear
11:58 PM 59.2 °F 59.0 °F 99% 30.12 in 10.0 mi WNW 5.8 mph - N/A   Clear